Regional Weather Roundup
Issued by NWS Newport/Morehead, NC

Current Version | Previous Version | Text Only | Print | Product List | Glossary Off
Versions: 1 2 3 4 5 6 7 8 9 10 11 12 13 14 15 16 17 18 19 20 21 22 23 24 25 26 27 28 29 30 31 32 33 34 35 36 37 38 39 40 41 42 43 44 45 46 47 48 49 50

000
ASUS42 KMHX 120125
RWRMHX
WEATHER ROUNDUP FOR EASTERN NORTH CAROLINA
NATIONAL WEATHER SERVICE NEWPORT/MOREHEAD CITY NC
800 PM EST MON DEC 11 2017

NOTE: "FAIR" INDICATES FEW OR NO CLOUDS BELOW 12,000 FEET
WITH NO SIGNIFICANT WEATHER AND/OR OBSTRUCTIONS TO VISIBILITY

NCZ015>017-031-032-045>047-102-103-120200-
NORTH COAST

CITY           SKY/WX    TMP DP  RH WIND       PRES   REMARKS
EDENTON        CLEAR     40  35  85 S3        30.03F
ELIZABETH CITY CLEAR     41  36  82 S6        30.02F
KITTY HAWK     CLEAR     40  32  71 CALM      30.03S
MANTEO         CLEAR     36  33  88 CALM      30.04F

$$

NCZ045>047-081-094-103-104-120200-
CENTRAL COAST

CITY           SKY/WX    TMP DP  RH WIND       PRES   REMARKS
FRISCO         CLEAR     35  33  92 E3        30.03F

$$

NCZ095-097-098-100-101-120200-
SOUTHERN COAST

CITY           SKY/WX    TMP DP  RH WIND       PRES   REMARKS
BEAUFORT       CLEAR     37  36  96 SE3       30.04S
CEDAR ISLAND   NOT AVBL
JACKSONVILLE   CLEAR     37  35  92 SW5       30.05R
PINEY ISLAND     N/A    N/A N/A N/A S3        30.04S
WILMINGTON     CLEAR     39  34  82 CALM      30.06R


$$

NCZ011>013-027>030-043-044-078>080-089-090>093-098-120200-
COASTAL PLAIN

CITY           SKY/WX    TMP DP  RH WIND       PRES   REMARKS
AHOSKIE        CLEAR     31  30  96 S3        30.01S
CLINTON        CLEAR     37  34  89 CALM      30.04R
ELIZABETHTOWN  NOT AVBL
GOLDSBORO      CLEAR     39  31  73 CALM      30.01F
GREENVILLE     CLEAR     37  34  87 CALM      30.04F
HAVELOCK       CLEAR     38  32  79 CALM      30.05S
KENANSVILLE    CLEAR     34  30  86 CALM      30.04S
KINSTON        CLEAR     36  32  87 S3        30.04S
NEW BERN       CLEAR     37  35  92 CALM      30.05R
RICHLANDS      CLEAR     36  34  92 CALM      30.05S
ROCKY MOUNT    CLEAR     37  34  89 S3        30.01S
WASHINGTON     CLEAR     35  33  92 SE7       30.03F
WHITEVILLE     CLEAR     43  35  75 SW3       30.04S

$$

AMZ130-135-150-152-154-156-158-170-250-252-270-ANZ085-086-088-633-658-670-120200-
MARINE OBSERVATIONS

STATION/POSITION TIME  TEMP    WIND        PRES    WAVE   SWELL
                       AIR SEA DIR/SP/G            HT/PER HT/PER
                 (UTC) (F)     (DEG/KT/KT) (MB)    (FT/S) (FT/S)
CHESAPEAKE LIGHT NOT AVBL
64 E VA BEACH    0050   48 59  220/  2/  6 1017.7    2/ 9   2/ 9
DUCK             0100   46 54  160/  9/ 11 1016.2
2 E DUCK         0100      54                N/A     1/ 9
OREGON INLET     0100   44 46  130/  2/  2 1017.2
13E OREGON INLT  0048      56                N/A     2/ 9   2/ 9
HATTERAS CG      0100   46 53  140/  2/  2 1016.8
DIAMOND BUOY     0100   54 75   CALM  /  2 1017.3
CAPE LOOKOUT     0100          200/  5/  5 1017.5
BEAUFORT LAB     0100   50 51  180/  6/  7 1017.0
30 SE NEW RVR IN 0108   54 67  220/  6/  8 1017.4
30 SE NEW RVR IN 0100      67                N/A     3/ 6
27 SE WRIGHTSVLE 0108   53 66  250/  8/ 12 1017.7
5 SE WRIGHTSVLE  0108   51 58  260/  6/ 10 1017.4
225 S CAPE HAT   0050   66 76  270/ 10/ 12 1018.5    4/ 8   3/ 8
41 SE CHARLESTON 0100      73  260/ 16/ 21 1018.2

$$



USA.gov is the U.S. government's official web portal to all federal, state and local government web resources and services.